• En España
  • Lista de países
  • Para 7 días
  • Temperatura del agua
  • Mapa Satelital
  • El tiempo en el mapa
  • Informadores
  • user-avatar
    Iniciar sesión

    Tiempo cada hora Ganja

    Hoy, 23 Septiembre, Sábado

    Tiempo Temperatura Precipitaciones Viento Presión Humedad
    00:00 +24°C° 0 mm 1 mps 725 mmHg 54%
    01:00 +24°C° 0 mm 1 mps 725 mmHg 56%
    02:00 +23°C° 0 mm 1 mps 725 mmHg 57%
    03:00 +23°C° 0 mm 1 mps 725 mmHg 58%
    04:00 +23°C° 0,4 mm 1 mps 725 mmHg 59%
    05:00 +23°C° 0,4 mm 1 mps 725 mmHg 60%
    06:00 +23°C° 0,4 mm 1 mps 725 mmHg 62%
    07:00 +24°C° 0,2 mm 2 mps 726 mmHg 58%
    08:00 +26°C° 0,2 mm 2 mps 726 mmHg 54%
    09:00 +28°C° 0,2 mm 3 mps 726 mmHg 51%
    10:00 +29°C° 0 mm 4 mps 726 mmHg 48%
    11:00 +30°C° 0 mm 4 mps 726 mmHg 44%
    12:00 +32°C° 0 mm 5 mps 726 mmHg 41%
    13:00 +32°C° 0,1 mm 6 mps 726 mmHg 40%
    14:00 +33°C° 0,1 mm 6 mps 726 mmHg 39%
    15:00 +33°C° 0,1 mm 6 mps 725 mmHg 37%
    16:00 +32°C° 0 mm 5 mps 725 mmHg 40%
    17:00 +29°C° 0 mm 5 mps 726 mmHg 44%
    18:00 +28°C° 0 mm 4 mps 726 mmHg 47%
    19:00 +27°C° 0 mm 4 mps 726 mmHg 49%
    20:00 +26°C° 0 mm 4 mps 726 mmHg 51%
    21:00 +25°C° 0 mm 4 mps 727 mmHg 53%
    22:00 +25°C° 0 mm 4 mps 727 mmHg 55%
    23:00 +24°C° 0 mm 3 mps 727 mmHg 57%

    Mañana, 24 Septiembre, Domingo

    Tiempo Temperatura Precipitaciones Viento Presión Humedad
    00:00 +22°C° 0 mm 3 mps 727 mmHg 59%
    01:00 +23°C° 0 mm 2 mps 727 mmHg 62%
    02:00 +21°C° 0 mm 2 mps 727 mmHg 64%
    03:00 +21°C° 0 mm 1 mps 727 mmHg 66%
    04:00 +21°C° 0 mm 1 mps 727 mmHg 67%
    05:00 +21°C° 0 mm 1 mps 728 mmHg 68%
    06:00 +20°C° 0 mm 1 mps 728 mmHg 69%
    07:00 +22°C° 0 mm 1 mps 728 mmHg 63%
    08:00 +24°C° 0 mm 1 mps 728 mmHg 58%
    09:00 +25°C° 0 mm 1 mps 728 mmHg 52%
    10:00 +26°C° 0 mm 2 mps 728 mmHg 49%
    11:00 +27°C° 0 mm 2 mps 728 mmHg 45%
    12:00 +28°C° 0 mm 3 mps 728 mmHg 41%
    13:00 +29°C° 0,1 mm 3 mps 728 mmHg 40%
    14:00 +29°C° 0,1 mm 3 mps 727 mmHg 38%
    15:00 +30°C° 0,1 mm 4 mps 727 mmHg 37%
    16:00 +29°C° 0,1 mm 4 mps 727 mmHg 41%
    17:00 +27°C° 0,1 mm 3 mps 727 mmHg 45%
    18:00 +26°C° 0,1 mm 3 mps 728 mmHg 48%
    19:00 +26°C° 0 mm 3 mps 728 mmHg 51%
    20:00 +25°C° 0 mm 3 mps 728 mmHg 53%
    21:00 +24°C° 0 mm 3 mps 729 mmHg 55%
    22:00 +24°C° 0 mm 3 mps 729 mmHg 58%
    23:00 +22°C° 0 mm 3 mps 729 mmHg 62%

    Pasado mañana, 25 Septiembre, Lunes

    Tiempo Temperatura Precipitaciones Viento Presión Humedad
    00:00 +21°C° 0 mm 2 mps 729 mmHg 65%
    01:00 +21°C° 0 mm 2 mps 729 mmHg 68%
    02:00 +21°C° 0 mm 1 mps 729 mmHg 71%
    03:00 +21°C° 0 mm 1 mps 729 mmHg 74%
    04:00 +20°C° 0 mm 1 mps 729 mmHg 75%
    05:00 +18°C° 0 mm 0 mps 729 mmHg 76%
    06:00 +18°C° 0 mm 0 mps 729 mmHg 77%
    07:00 +21°C° 0 mm 1 mps 729 mmHg 70%
    08:00 +23°C° 0 mm 1 mps 729 mmHg 63%
    09:00 +24°C° 0 mm 1 mps 729 mmHg 56%
    10:00 +26°C° 0 mm 2 mps 729 mmHg 51%
    11:00 +27°C° 0 mm 2 mps 729 mmHg 45%
    12:00 +28°C° 0 mm 3 mps 729 mmHg 40%
    13:00 +29°C° 0 mm 3 mps 728 mmHg 38%
    14:00 +29°C° 0 mm 3 mps 728 mmHg 36%
    15:00 +29°C° 0 mm 4 mps 728 mmHg 35%
    16:00 +28°C° 0,2 mm 3 mps 728 mmHg 39%
    17:00 +27°C° 0,2 mm 3 mps 728 mmHg 42%
    18:00 +26°C° 0,2 mm 2 mps 728 mmHg 46%
    19:00 +25°C° 0 mm 2 mps 729 mmHg 48%
    20:00 +24°C° 0 mm 3 mps 729 mmHg 51%
    21:00 +24°C° 0 mm 3 mps 729 mmHg 53%
    22:00 +22°C° 0 mm 3 mps 729 mmHg 55%
    23:00 +22°C° 0 mm 3 mps 729 mmHg 57%

    26 Septiembre, Martes

    Tiempo Temperatura Precipitaciones Viento Presión Humedad
    00:00 +21°C° 0 mm 3 mps 729 mmHg 59%
    01:00 +20°C° 0 mm 3 mps 729 mmHg 60%
    02:00 +20°C° 0 mm 2 mps 729 mmHg 61%
    03:00 +19°C° 0 mm 2 mps 729 mmHg 63%
    04:00 +19°C° 0 mm 2 mps 729 mmHg 64%
    05:00 +18°C° 0 mm 2 mps 729 mmHg 65%
    06:00 +18°C° 0 mm 2 mps 729 mmHg 67%
    07:00 +20°C° 0 mm 2 mps 729 mmHg 62%
    08:00 +21°C° 0 mm 3 mps 729 mmHg 58%
    09:00 +24°C° 0 mm 3 mps 729 mmHg 53%
    10:00 +25°C° 0 mm 4 mps 729 mmHg 50%
    11:00 +26°C° 0 mm 4 mps 729 mmHg 47%
    12:00 +27°C° 0 mm 5 mps 729 mmHg 44%
    13:00 +27°C° 0 mm 5 mps 729 mmHg 44%
    14:00 +27°C° 0 mm 5 mps 728 mmHg 44%
    15:00 +27°C° 0 mm 5 mps 728 mmHg 44%
    16:00 +26°C° 0 mm 5 mps 728 mmHg 49%
    17:00 +25°C° 0 mm 5 mps 728 mmHg 54%
    18:00 +23°C° 0 mm 5 mps 728 mmHg 59%
    19:00 +22°C° 0 mm 5 mps 729 mmHg 63%
    20:00 +21°C° 0 mm 5 mps 729 mmHg 66%
    21:00 +20°C° 0 mm 5 mps 729 mmHg 70%
    22:00 +19°C° 0 mm 5 mps 729 mmHg 72%
    23:00 +19°C° 0 mm 5 mps 729 mmHg 74%

    27 Septiembre, Miércoles

    Tiempo Temperatura Precipitaciones Viento Presión Humedad
    00:00 +18°C° 0 mm 4 mps 729 mmHg 77%
    01:00 +18°C° 0 mm 4 mps 728 mmHg 77%
    02:00 +18°C° 0 mm 3 mps 728 mmHg 78%
    03:00 +18°C° 0 mm 2 mps 728 mmHg 79%
    04:00 +18°C° 0 mm 2 mps 728 mmHg 79%
    05:00 +19°C° 0 mm 1 mps 728 mmHg 79%
    06:00 +19°C° 0 mm 1 mps 728 mmHg 79%
    07:00 +20°C° 0 mm 1 mps 728 mmHg 74%
    08:00 +20°C° 0 mm 2 mps 728 mmHg 69%
    09:00 +21°C° 0 mm 2 mps 727 mmHg 64%
    10:00 +23°C° 0 mm 2 mps 727 mmHg 60%
    11:00 +24°C° 0 mm 3 mps 727 mmHg 57%
    12:00 +25°C° 0 mm 3 mps 726 mmHg 53%
    13:00 +25°C° 0 mm 3 mps 726 mmHg 52%
    14:00 +25°C° 0 mm 3 mps 726 mmHg 51%
    15:00 +26°C° 0 mm 4 mps 725 mmHg 50%
    16:00 +25°C° 0 mm 4 mps 726 mmHg 54%
    17:00 +23°C° 0 mm 4 mps 726 mmHg 59%
    18:00 +22°C° 0 mm 4 mps 726 mmHg 63%
    19:00 +21°C° 0 mm 4 mps 727 mmHg 65%
    20:00 +21°C° 0 mm 4 mps 727 mmHg 67%
    21:00 +21°C° 0 mm 5 mps 728 mmHg 69%
    22:00 +20°C° 0 mm 5 mps 728 mmHg 71%
    23:00 +19°C° 0 mm 4 mps 727 mmHg 72%

    28 Septiembre, Jueves

    Tiempo Temperatura Precipitaciones Viento Presión Humedad
    00:00 +19°C° 0 mm 4 mps 727 mmHg 74%
    01:00 +19°C° 0 mm 4 mps 727 mmHg 75%
    02:00 +18°C° 0 mm 4 mps 727 mmHg 75%
    03:00 +18°C° 0 mm 4 mps 727 mmHg 76%
    04:00 +18°C° 0 mm 4 mps 728 mmHg 77%
    05:00 +17°C° 0 mm 4 mps 728 mmHg 78%
    06:00 +17°C° 0 mm 4 mps 728 mmHg 79%
    07:00 +18°C° 0,1 mm 4 mps 728 mmHg 78%
    08:00 +18°C° 0,1 mm 4 mps 729 mmHg 77%
    09:00 +17°C° 0,1 mm 5 mps 729 mmHg 76%
    10:00 +19°C° 0 mm 5 mps 729 mmHg 74%
    11:00 +19°C° 0 mm 5 mps 729 mmHg 72%
    12:00 +20°C° 0 mm 6 mps 729 mmHg 71%
    13:00 +19°C° 0 mm 6 mps 729 mmHg 72%
    14:00 +19°C° 0 mm 5 mps 729 mmHg 74%
    15:00 +19°C° 0 mm 5 mps 728 mmHg 75%
    16:00 +17°C° 0 mm 5 mps 729 mmHg 78%
    17:00 +16°C° 0 mm 5 mps 729 mmHg 80%
    18:00 +17°C° 0 mm 4 mps 729 mmHg 83%
    19:00 +17°C° 0,1 mm 4 mps 729 mmHg 84%
    20:00 +15°C° 0,1 mm 4 mps 730 mmHg 84%
    21:00 +15°C° 0,1 mm 4 mps 730 mmHg 85%
    22:00 +16°C° 0,1 mm 3 mps 730 mmHg 86%
    23:00 +16°C° 0,1 mm 3 mps 730 mmHg 87%
    Mostrar más